Temp
63 63 63 63 63 63 64 64 63 63 64 64 64 64 64 64 65 63 62 66 66 71 68 64 66 65 64 60 59 57 51 47 50 50 55 55 58 57 59 58 58 59 60 61 60
62 62 63 63 63 63 63 63 63 63 63 63 64 64 64 63 62 62 68 71 71 71 65 63 61 62 59 58 57 54 49 52 54 54 55 56 58 58 59 57 57 58 58 57 57
62 62 62 62 63 63 63 63 62 63 63 63 63 63 63 60 61 60 71 72 71 69 64 64 63 61 56 56 53 51 51 53 55 56 57 57 55 58 57 55 60 60 59 55 55
61 61 61 61 62 62 62 62 62 62 63 63 63 63 63 59 50 62 69 71 71 64 64 62 62 56 52 52 54 51 52 54 57 56 56 56 56 56 56 61 58 60 59 54 54
60 60 60 61 61 62 62 62 62 62 62 63 63 63 61 58 57 64 68 68 64 63 61 60 57 55 52 53 53 51 53 54 55 54 54 56 55 56 56 59 56 56 55 54 55
61 60 60 60 61 61 61 62 62 62 62 63 63 63 58 51 62 65 63 64 64 63 59 60 59 58 55 52 52 52 53 53 54 54 54 54 53 53 57 54 56 54 55 54 54
61 60 60 60 60 61 61 61 61 62 62 63 63 61 56 57 61 63 65 61 61 61 60 59 60 58 55 52 53 52 49 52 51 53 53 54 52 54 56 53 55 54 53 52 53
61 60 60 60 60 60 60 61 61 61 62 62 63 56 53 60 60 63 63 61 63 63 62 59 61 58 55 53 52 48 47 44 50 51 52 53 47 55 53 53 56 54 52 51 53
60 60 60 60 60 60 60 60 60 61 62 63 54 53 52 63 59 59 60 60 60 61 60 64 58 51 52 47 44 43 41 40 48 50 49 49 47 52 50 49 52 52 51 50 51
60 60 60 60 60 60 60 60 60 59 60 61 60 51 54 53 56 58 58 61 58 56 57 56 49 46 44 44 39 41 39 40 42 47 45 45 46 52 51 49 51 51 51 50 51
59 60 60 60 60 60 57 55 54 52 51 52 52 51 52 55 57 55 57 58 56 54 47 46 45 43 47 45 44 43 41 41 43 47 46 45 46 49 53 48 48 51 52 52 52
57 58 59 60 60 60 54 52 52 53 48 54 53 54 55 57 51 53 59 54 50 45 45 43 41 48 48 46 45 42 40 41 44 45 46 44 45 51 50 54 55 57 56 55 57
57 57 58 59 59 57 51 54 56 54 46 50 52 52 54 57 53 53 57 51 46 42 43 41 46 47 48 42 42 40 40 40 43 42 42 40 40 44 49 49 52 52 57 56 57
57 57 58 58 56 55 52 57 57 55 39 44 47 51 52 54 49 54 56 53 44 45 42 42 47 46 42 41 45 38 44 43 41 40 35 40 33 41 46 49 49 53 53 55 57
56 56 56 59 55 53 56 57 58 56 30 45 46 55 50 50 47 48 52 50 44 45 45 43 42 42 42 44 45 42 43 42 39 37 35 35 34 40 41 45 49 56 57 56 55
55 55 56 56 56 56 57 58 55 39 31 40 45 44 45 45 44 46 48 52 48 45 42 42 43 45 46 44 45 44 42 39 35 35 29 36 38 42 41 47 51 53 56 55 53
55 55 53 55 52 57 57 52 36 31 42 38 38 42 41 41 42 43 42 42 41 36 36 39 41 42 46 42 43 41 40 31 28 25 30 33 34 49 47 50 51 56 59 53 51
55 55 51 54 56 56 52 43 30 37 37 41 40 39 38 41 39 38 39 38 42 38 35 36 34 42 46 47 42 39 41 32 24 23 29 31 30 40 47 49 49 50 50 47 48
53 45 45 49 54 54 46 33 35 38 40 40 39 35 35 38 39 37 36 36 42 44 39 34 35 40 42 44 50 39 36 44 36 17 24 33 37 46 46 47 47 48 47 46 47
42 41 43 51 51 51 42 37 40 43 43 43 38 41 33 35 36 34 35 40 42 46 48 42 35 38 39 43 41 43 45 35 31 23 18 31 32 40 44 49 50 49 49 49 47
40 34 43 49 52 43 35 38 41 44 47 44 40 40 37 37 38 33 37 40 43 42 50 46 40 33 36 37 37 38 37 36 37 32 25 22 35 41 48 50 49 50 49 49 49
37 29 43 49 39 39 36 38 45 45 46 45 44 44 40 39 37 35 36 42 45 45 42 45 42 34 35 37 37 34 37 40 32 27 26 27 40 44 46 49 47 48 48 48 46
33 32 42 46 30 32 34 37 40 39 42 43 41 44 43 41 38 39 39 42 46 46 43 45 37 24 32 34 33 33 36 39 35 29 28 28 39 43 42 45 45 46 46 47 46
35 27 32 37 39 33 31 32 33 40 41 43 43 45 42 39 44 39 36 40 43 47 48 49 38 34 34 34 36 31 34 40 42 33 38 34 43 50 45 46 47 48 47 47 46
37 30 32 24 29 34 37 36 33 33 39 41 38 39 39 37 38 37 40 41 42 45 45 45 34 36 39 38 36 36 35 38 39 42 37 42 43 50 52 52 55 55 48 48 48
34 32 31 29 32 32 32 32 33 37 37 34 36 39 38 36 39 37 41 41 40 42 42 42 33 36 34 37 38 35 36 37 40 42 43 45 44 56 57 49 47 50 53 53 49
38 39 35 33 28 28 30 32 33 35 38 40 38 34 34 37 39 39 41 41 40 38 37 38 34 33 31 37 35 30 35 39 40 42 42 37 46 53 51 52 49 49 48 50 51
MSLP
1018.00 1017.99 1017.97 1017.89 1017.83 1017.95 1017.96 1017.88 1017.94 1017.79 1017.63 1017.13 1016.89 1016.60 1016.23 1016.29 1015.76 1015.71 1015.90 1016.05 1015.82 1015.68 1015.48 1015.36 1015.65 1015.81 1016.24 1017.23 1017.87 1018.21 1019.39 1020.04 1019.75 1019.82 1018.99 1019.17 1019.42 1019.59 1019.75 1020.10 1020.47 1020.57 1020.77 1020.94 1021.24
1018.08 1018.08 1018.07 1018.16 1018.20 1018.13 1018.00 1018.08 1017.80 1017.69 1017.46 1017.03 1016.80 1016.22 1016.15 1015.83 1015.49 1015.62 1015.75 1015.74 1015.50 1015.60 1015.42 1015.57 1015.78 1016.26 1017.00 1017.54 1018.04 1018.47 1019.37 1019.17 1018.85 1018.84 1018.70 1018.88 1019.11 1019.43 1019.89 1020.13 1020.39 1020.53 1020.84 1021.24 1021.55
1018.33 1018.20 1018.26 1018.27 1018.30 1018.10 1018.02 1017.92 1017.81 1017.71 1017.34 1017.04 1016.48 1015.98 1015.82 1015.50 1015.75 1015.83 1015.73 1015.64 1015.51 1015.50 1015.62 1015.55 1015.83 1016.43 1017.39 1017.58 1018.12 1018.55 1018.71 1018.56 1018.41 1018.49 1018.48 1018.71 1019.04 1019.21 1019.52 1020.01 1019.52 1019.82 1020.35 1021.19 1021.58
1018.43 1018.51 1018.35 1018.30 1018.31 1018.32 1018.20 1018.01 1017.76 1017.48 1017.25 1016.63 1016.13 1015.78 1015.66 1015.22 1016.18 1015.76 1015.67 1015.76 1015.39 1015.46 1015.57 1015.91 1016.04 1017.02 1017.56 1017.90 1018.02 1018.36 1018.36 1018.23 1018.18 1018.28 1018.52 1018.66 1018.88 1019.16 1019.41 1018.72 1018.91 1019.23 1019.77 1020.81 1021.31
1018.30 1018.38 1018.36 1018.30 1018.22 1018.11 1018.06 1017.84 1017.63 1017.38 1016.98 1016.56 1016.08 1015.72 1015.35 1015.61 1016.08 1015.80 1015.39 1015.62 1015.33 1015.44 1015.78 1016.08 1016.52 1017.08 1017.69 1017.97 1018.17 1018.32 1018.34 1018.17 1018.11 1018.22 1018.34 1018.49 1018.71 1018.93 1018.93 1018.64 1019.01 1019.36 1019.91 1020.26 1020.75
1018.18 1018.16 1018.17 1018.12 1018.06 1017.88 1017.87 1017.82 1017.59 1017.31 1016.95 1016.69 1016.27 1015.78 1015.67 1016.04 1015.88 1015.85 1015.66 1015.33 1015.58 1015.68 1016.03 1016.32 1016.70 1016.95 1017.79 1018.15 1018.38 1018.55 1018.51 1018.42 1018.27 1018.26 1018.39 1018.56 1018.75 1018.89 1018.32 1018.58 1019.10 1019.56 1019.80 1020.15 1020.45
1018.10 1018.07 1018.09 1018.09 1018.10 1018.07 1017.91 1017.77 1017.60 1017.44 1017.15 1016.80 1016.46 1016.13 1016.06 1016.07 1015.90 1015.88 1015.42 1015.67 1015.86 1015.91 1016.39 1016.70 1016.70 1017.10 1017.79 1018.48 1018.75 1018.92 1019.09 1018.71 1018.46 1018.39 1018.46 1018.56 1018.88 1018.35 1018.32 1018.71 1019.13 1019.50 1019.79 1020.10 1020.16
1017.95 1018.03 1017.90 1017.80 1017.81 1017.79 1017.73 1017.56 1017.44 1017.24 1017.04 1016.84 1016.57 1016.31 1015.98 1015.83 1015.79 1015.74 1015.67 1015.90 1016.07 1016.18 1016.43 1016.86 1016.73 1017.49 1018.26 1018.98 1019.37 1019.67 1019.78 1019.63 1018.88 1018.82 1018.82 1019.01 1018.69 1017.95 1018.28 1018.81 1018.97 1019.21 1019.54 1019.76 1019.66
1017.83 1017.76 1017.83 1017.67 1017.60 1017.58 1017.50 1017.37 1017.23 1017.09 1016.92 1016.66 1016.62 1016.33 1016.13 1015.83 1016.02 1016.07 1015.98 1016.23 1016.38 1016.53 1016.98 1016.97 1017.31 1018.77 1019.08 1019.81 1020.51 1020.78 1020.44 1020.30 1019.52 1019.22 1019.35 1019.57 1019.15 1018.16 1018.45 1018.94 1018.93 1019.00 1019.10 1019.25 1019.20
1017.62 1017.66 1017.66 1017.64 1017.51 1017.50 1017.37 1017.15 1016.96 1016.98 1016.97 1016.81 1016.77 1016.88 1016.31 1016.35 1016.39 1016.40 1016.25 1016.41 1016.71 1017.06 1017.46 1017.87 1018.72 1019.64 1020.22 1020.53 1020.84 1020.78 1020.84 1020.61 1020.28 1019.80 1019.87 1019.95 1019.34 1018.79 1018.53 1018.89 1018.74 1018.56 1018.42 1018.48 1018.45
1017.33 1017.40 1017.45 1017.46 1017.34 1017.55 1017.32 1017.28 1017.59 1017.60 1017.22 1016.78 1016.58 1016.53 1016.46 1016.53 1016.40 1016.58 1016.60 1016.66 1017.15 1017.89 1018.57 1019.22 1019.73 1019.96 1019.52 1020.13 1020.23 1020.42 1020.63 1020.64 1020.22 1019.94 1020.25 1019.90 1019.26 1018.78 1018.30 1018.42 1017.96 1017.65 1017.48 1017.18 1017.02
1017.48 1017.41 1017.24 1017.50 1017.13 1017.56 1017.93 1017.97 1017.94 1018.03 1017.54 1016.64 1016.82 1016.59 1016.37 1016.28 1016.71 1016.78 1016.57 1017.15 1017.69 1018.76 1019.23 1019.93 1019.94 1019.19 1019.65 1020.22 1020.45 1020.65 1020.88 1020.82 1020.34 1020.23 1020.49 1019.98 1019.21 1018.27 1017.88 1016.85 1016.11 1016.06 1015.95 1015.69 1015.50
1017.56 1017.24 1017.00 1017.06 1017.10 1017.87 1018.30 1017.94 1017.81 1018.00 1017.96 1016.81 1016.62 1016.40 1016.11 1016.29 1016.29 1016.35 1016.85 1017.30 1018.00 1019.19 1019.61 1019.79 1019.38 1019.34 1019.75 1020.31 1020.72 1020.93 1021.06 1020.93 1020.89 1020.68 1020.74 1020.49 1019.39 1017.73 1016.33 1015.75 1015.33 1014.76 1014.25 1014.27 1014.07
1018.06 1017.61 1017.19 1017.26 1018.00 1018.12 1018.09 1017.78 1017.85 1017.95 1018.22 1016.93 1016.59 1015.82 1015.92 1015.89 1016.32 1016.07 1016.02 1016.92 1018.24 1018.54 1019.51 1019.70 1019.05 1019.34 1019.87 1020.12 1020.33 1020.76 1020.35 1020.70 1021.18 1021.66 1021.63 1021.04 1019.65 1017.47 1015.85 1015.01 1014.50 1013.40 1013.18 1012.69 1012.68
1018.19 1018.10 1017.97 1017.63 1017.68 1018.10 1018.00 1017.81 1017.92 1018.15 1018.16 1016.64 1016.21 1015.82 1015.98 1016.33 1016.59 1016.66 1016.56 1016.50 1017.43 1018.38 1019.18 1018.28 1018.62 1019.03 1019.38 1019.26 1019.78 1020.14 1020.35 1021.09 1021.62 1022.12 1022.21 1021.39 1020.75 1016.33 1015.57 1014.53 1013.53 1012.14 1011.77 1011.74 1012.04
1018.78 1018.52 1018.24 1018.02 1017.89 1017.96 1017.93 1017.84 1018.38 1019.04 1017.46 1016.31 1016.00 1016.08 1016.58 1016.53 1016.86 1017.09 1016.86 1016.88 1017.38 1018.11 1018.36 1018.34 1018.25 1018.24 1018.12 1018.80 1019.19 1020.12 1020.77 1021.74 1022.55 1022.92 1022.58 1020.32 1020.08 1014.73 1014.82 1013.01 1012.21 1011.26 1010.89 1011.01 1011.79
1018.69 1018.63 1018.57 1018.31 1018.14 1017.94 1017.93 1018.49 1019.35 1018.33 1017.51 1016.55 1016.37 1016.58 1016.84 1016.94 1017.27 1017.26 1017.41 1017.50 1017.70 1018.34 1018.15 1018.30 1018.00 1017.94 1017.95 1018.82 1019.54 1019.75 1020.73 1022.29 1023.24 1023.49 1021.68 1020.39 1019.72 1013.14 1013.16 1012.17 1011.51 1011.13 1010.24 1010.76 1011.52
1018.59 1018.57 1018.50 1018.25 1017.99 1018.19 1018.40 1019.06 1018.57 1017.33 1017.07 1016.61 1016.65 1017.04 1017.43 1017.40 1017.51 1017.74 1017.79 1017.94 1017.60 1017.78 1018.03 1017.94 1017.76 1017.34 1017.20 1017.15 1018.14 1019.22 1019.36 1020.42 1021.33 1022.54 1021.72 1020.81 1018.20 1013.19 1011.62 1011.19 1011.14 1010.74 1010.48 1010.99 1011.66
1018.57 1018.69 1018.57 1018.06 1018.04 1018.27 1018.52 1018.26 1017.09 1016.62 1016.82 1016.75 1017.18 1017.42 1017.45 1017.37 1017.64 1017.94 1017.82 1017.40 1016.77 1016.86 1017.29 1017.38 1017.05 1016.61 1016.63 1016.64 1016.89 1018.54 1018.78 1018.18 1020.01 1022.06 1021.87 1018.86 1015.59 1012.70 1011.43 1010.89 1010.58 1010.27 1010.62 1011.07 1011.52
1018.87 1018.83 1018.52 1017.62 1017.98 1018.28 1018.14 1017.49 1016.88 1016.18 1016.17 1016.36 1016.40 1016.50 1016.94 1017.30 1017.75 1018.17 1017.61 1016.02 1015.92 1015.31 1015.35 1016.20 1016.83 1016.65 1016.83 1016.82 1016.92 1016.93 1017.39 1018.62 1019.64 1020.99 1020.58 1017.55 1015.77 1012.65 1011.34 1010.48 1009.85 1010.11 1010.30 1010.54 1010.82
1019.27 1019.22 1017.96 1017.74 1017.92 1018.61 1017.61 1017.10 1016.69 1016.24 1016.39 1016.34 1015.86 1016.17 1016.53 1016.84 1017.26 1017.51 1016.53 1015.63 1015.10 1014.94 1015.26 1015.74 1016.55 1017.18 1017.21 1016.77 1016.65 1017.41 1017.27 1017.86 1018.44 1018.94 1018.36 1017.16 1013.31 1010.93 1010.10 1009.79 1009.94 1009.76 1009.80 1010.10 1010.57
1019.29 1019.30 1017.93 1017.68 1018.26 1018.05 1017.47 1016.85 1016.46 1016.38 1016.21 1016.05 1015.86 1015.78 1016.22 1016.45 1016.54 1016.69 1016.11 1015.16 1014.45 1014.73 1015.31 1014.87 1015.83 1016.60 1016.62 1016.33 1016.29 1016.21 1015.94 1016.39 1017.44 1018.15 1017.85 1016.42 1011.34 1009.48 1009.75 1009.52 1009.56 1009.32 1009.73 1010.02 1010.52
1019.35 1019.25 1018.18 1018.04 1017.87 1017.72 1017.28 1016.79 1016.73 1016.45 1016.17 1016.13 1016.07 1015.93 1015.63 1015.98 1016.02 1015.48 1015.34 1014.65 1014.62 1014.36 1014.32 1014.69 1015.40 1016.65 1016.54 1016.83 1016.74 1016.23 1015.95 1016.03 1016.32 1016.58 1015.76 1014.80 1010.68 1009.31 1009.67 1009.39 1009.43 1009.85 1009.81 1010.22 1010.51
1019.09 1019.27 1018.89 1018.37 1017.58 1017.32 1017.53 1017.26 1016.89 1016.28 1016.37 1016.40 1015.92 1015.82 1016.03 1016.00 1015.20 1014.78 1014.97 1014.85 1014.57 1014.04 1013.90 1013.73 1014.41 1014.86 1014.52 1014.13 1014.24 1015.39 1014.88 1014.56 1014.57 1015.00 1012.71 1012.98 1009.46 1009.25 1009.37 1009.42 1009.28 1009.37 1009.60 1009.82 1010.11
1018.23 1018.21 1017.81 1018.26 1017.80 1017.77 1017.73 1017.24 1016.67 1016.75 1016.50 1016.27 1016.06 1016.01 1015.95 1015.71 1015.53 1015.03 1014.91 1015.07 1014.69 1014.72 1014.64 1014.51 1014.29 1014.54 1013.35 1013.74 1013.98 1013.60 1013.42 1013.78 1014.03 1012.69 1012.80 1009.91 1010.25 1005.78 1008.58 1008.73 1008.78 1008.75 1008.88 1008.93 1008.91
1017.17 1017.72 1018.01 1017.96 1017.55 1017.83 1017.99 1016.91 1016.79 1016.71 1016.71 1016.38 1016.43 1016.05 1016.07 1016.05 1015.58 1015.09 1015.24 1015.16 1015.28 1014.82 1014.97 1014.62 1014.03 1013.94 1013.39 1012.97 1013.12 1013.51 1013.22 1012.68 1011.76 1011.21 1011.36 1009.24 1008.59 1005.07 1006.64 1007.39 1008.00 1008.13 1008.24 1008.29 1008.34
1016.98 1017.28 1017.48 1017.47 1017.82 1017.80 1016.92 1016.31 1016.38 1017.41 1016.73 1016.84 1016.92 1016.92 1016.57 1016.15 1016.16 1015.98 1015.96 1015.91 1015.78 1015.72 1015.30 1014.53 1013.92 1013.81 1012.36 1011.72 1012.61 1012.49 1011.30 1010.33 1010.64 1009.64 1008.91 1008.90 1005.60 1005.56 1006.03 1006.48 1007.40 1007.59 1007.70 1007.59 1007.57
Wind_Speed
4 4 5 6 6 5 6 7 7 8 8 9 9 9 9 11 3 3 2 1 2 6 0 2 3 4 4 4 4 3 6 2 5 7 4 4 5 1 1 5 2 4 3 1 5
4 4 4 4 4 5 5 5 6 7 9 10 10 11 11 8 3 4 1 1 2 6 3 3 3 3 4 3 3 6 4 9 5 5 3 5 4 8 4 3 4 3 3 2 5
3 4 4 5 5 5 5 6 6 7 8 9 11 11 12 1 3 1 4 2 3 4 3 3 4 3 4 3 2 2 5 4 3 3 2 5 2 5 7 4 8 9 5 6 7
4 3 3 3 4 6 6 7 7 9 10 11 12 13 7 1 3 1 3 2 3 2 3 3 5 3 3 3 1 3 1 4 3 3 4 5 5 4 6 6 1 7 5 8 11
4 2 1 2 3 5 7 9 9 10 11 12 13 14 2 4 1 3 3 4 2 3 3 3 3 4 5 4 2 2 3 2 1 2 3 5 4 7 8 8 1 3 6 11 11
5 4 1 2 4 5 7 9 10 11 12 12 13 11 3 1 1 5 3 3 4 3 3 2 5 4 5 3 3 2 2 1 1 2 2 4 2 1 4 4 4 5 8 8 11
7 6 4 2 2 5 6 8 10 11 12 11 12 3 4 3 2 4 4 2 2 2 3 1 3 3 4 4 1 2 1 5 2 1 1 2 5 11 3 3 6 8 7 8 11
8 6 4 2 3 5 8 9 10 11 11 10 8 1 2 2 2 3 3 3 4 4 4 2 5 7 4 3 6 4 5 1 3 2 2 3 9 7 1 6 10 9 8 8 11
8 6 4 2 1 5 8 10 9 9 10 6 2 3 3 1 3 2 3 3 3 3 5 3 7 4 4 5 5 6 3 2 8 4 0 3 7 5 1 4 9 8 9 9 10
8 7 5 3 1 5 9 11 6 5 3 1 2 3 1 2 1 2 3 5 5 3 4 7 6 4 4 4 6 6 4 3 5 2 1 3 13 12 7 4 10 9 9 10 12
7 7 6 5 2 6 7 2 5 3 3 3 2 3 1 1 0 2 1 4 3 7 4 4 5 7 13 6 3 5 3 3 4 3 3 8 12 12 12 6 11 13 13 13 16
11 10 4 5 6 4 2 3 2 3 6 4 2 4 2 4 2 3 5 6 4 5 4 5 6 10 7 5 4 3 3 5 5 3 4 6 16 14 8 13 15 17 17 17 14
13 12 10 5 8 3 1 3 3 1 1 6 5 5 6 8 8 9 9 4 5 6 7 8 5 5 7 5 6 4 6 6 7 3 3 6 9 8 7 10 10 13 17 12 19
14 14 5 11 5 3 2 3 3 2 2 7 4 5 2 6 4 1 6 8 2 12 9 7 4 6 4 5 8 6 9 5 3 3 5 1 8 9 8 10 8 14 12 19 20
13 13 13 3 5 2 2 1 1 2 4 1 3 0 2 5 2 3 3 3 10 9 8 9 10 7 6 8 8 7 6 7 3 3 3 2 4 10 2 9 12 17 16 16 12
10 11 13 1 1 1 3 5 3 3 9 3 4 4 5 1 3 2 2 5 4 5 2 3 1 6 8 3 4 10 7 7 5 2 5 9 8 7 7 9 7 7 11 9 7
9 9 5 2 1 4 2 4 1 6 1 4 4 4 3 5 3 4 6 5 7 6 8 2 5 2 4 7 4 2 6 1 3 1 11 4 5 17 6 9 9 11 15 5 5
9 9 3 3 2 2 4 2 8 6 9 2 3 3 6 6 2 2 6 6 6 2 3 8 8 11 8 10 10 10 9 8 9 6 5 3 11 11 10 8 11 11 10 2 3
6 2 2 4 3 2 3 7 9 7 6 8 3 3 5 4 5 4 9 7 10 11 9 6 8 2 3 2 10 7 9 5 2 2 3 7 11 12 13 15 8 14 9 6 9
1 2 2 3 4 3 5 11 7 6 4 3 10 7 7 6 6 6 9 6 7 15 7 6 4 2 1 2 1 7 6 3 1 4 5 7 7 12 5 9 11 12 11 8 8
2 2 4 5 4 3 9 9 5 5 4 7 4 4 7 8 6 5 7 4 6 6 14 6 3 2 3 8 10 4 5 2 4 5 7 3 10 9 12 9 9 9 6 5 7
2 0 3 3 5 3 13 7 6 4 5 4 3 10 9 8 7 7 11 9 7 7 12 9 3 9 12 3 4 2 6 12 6 6 3 3 17 3 7 7 6 8 4 4 4
4 3 3 3 7 10 3 7 3 3 9 6 6 5 2 8 8 9 8 4 8 10 11 9 5 1 7 1 2 6 6 5 4 4 10 8 16 2 4 7 4 6 4 6 5
3 2 4 1 1 5 7 4 5 1 11 11 5 9 6 7 11 5 4 2 4 10 7 9 5 9 14 8 6 7 7 15 16 7 22 11 30 22 4 7 8 8 6 7 8
4 5 4 5 8 5 3 3 11 11 6 2 6 17 15 8 5 7 1 5 4 6 3 6 10 13 20 7 3 7 8 14 17 25 15 30 22 33 15 16 16 14 8 9 11
5 4 2 1 2 12 9 14 12 8 6 5 16 15 4 15 20 21 15 15 13 3 14 4 5 12 19 18 18 10 8 10 23 25 21 33 29 31 22 8 7 14 15 15 12
2 1 2 4 4 5 8 12 19 8 10 8 6 6 10 10 3 5 4 6 8 5 3 5 3 6 21 17 10 10 27 28 16 15 23 20 32 19 18 18 9 11 13 16 14
Wind_Direction
117 102 94 84 78 65 51 38 24 12 5 2 349 345 337 327 307 132 68 274 325 326 353 0 54 33 52 77 48 126 69 188 209 157 225 150 172 27 118 119 227 202 176 145 129
106 85 71 69 67 63 46 33 23 14 3 356 345 344 331 330 85 77 5 321 21 346 59 74 68 27 44 63 25 83 118 213 191 196 202 183 182 165 158 143 240 267 215 110 150
114 93 70 46 26 28 26 18 11 5 0 348 343 337 328 337 94 59 345 14 52 44 70 87 96 66 65 46 21 148 181 192 198 213 189 169 216 173 136 233 221 206 184 170 178
148 125 92 56 24 4 2 360 359 358 351 349 340 334 326 104 163 8 343 358 34 52 82 78 62 63 90 122 87 105 236 185 157 142 140 165 129 198 198 216 210 221 161 164 187
160 147 71 44 16 1 353 350 350 351 351 346 338 334 29 47 158 342 4 3 62 68 74 105 110 130 145 134 98 116 213 208 101 127 163 135 202 219 233 234 117 123 175 187 196
212 187 159 355 352 356 349 342 342 344 346 342 338 329 72 83 322 346 359 53 51 67 58 67 172 160 110 103 126 163 174 287 350 182 180 189 210 166 262 143 188 189 217 209 208
217 220 217 221 322 336 338 334 334 334 334 333 337 11 79 214 3 329 39 76 48 77 112 40 130 76 130 105 41 68 307 326 244 313 244 169 288 237 196 174 221 230 234 231 227
217 222 229 248 313 327 327 326 323 326 321 319 321 353 196 299 207 45 20 55 50 38 95 356 92 104 69 117 26 59 48 25 300 146 330 133 261 272 201 187 239 241 239 234 235
225 207 216 208 316 325 316 309 310 311 306 311 9 83 286 307 61 334 56 110 74 56 34 70 66 87 49 87 23 7 221 216 315 200 118 163 267 270 84 205 265 252 248 243 254
227 211 203 211 336 335 308 295 296 325 314 327 62 34 35 162 6 358 37 82 92 81 31 39 54 75 46 99 216 206 198 244 248 229 162 248 258 273 266 216 256 260 256 245 243
28 234 211 191 102 7 2 18 14 5 38 233 190 156 195 93 93 55 66 89 80 59 159 2 93 197 211 182 136 139 165 208 245 240 198 234 261 261 269 244 255 254 249 245 240
26 12 248 204 107 55 32 75 223 156 307 252 250 286 221 182 128 235 129 137 131 172 124 44 215 226 121 158 143 152 155 254 279 219 182 277 268 265 236 251 235 243 246 242 245
19 9 350 130 98 66 92 225 78 226 200 290 204 205 207 151 207 203 141 136 133 137 189 171 213 118 147 155 160 200 178 224 223 344 251 333 281 264 272 251 257 248 244 246 237
20 15 356 118 109 152 239 330 100 39 12 265 240 275 130 153 249 230 172 141 185 190 165 222 211 160 171 188 151 229 205 172 169 64 251 84 286 283 255 251 248 258 235 242 241
13 13 11 41 127 172 336 106 152 55 266 246 197 303 117 172 142 341 302 67 166 174 140 236 170 175 183 197 162 223 127 154 130 164 351 193 271 258 30 278 249 248 249 247 245
7 2 348 197 77 52 126 95 62 122 227 295 149 173 118 27 45 65 124 44 143 125 247 236 340 163 193 120 153 149 79 55 52 85 279 181 179 214 187 217 262 248 247 242 240
2 346 355 294 105 127 87 71 136 212 50 239 187 159 225 165 162 151 158 172 161 138 221 134 208 193 149 90 54 127 111 312 332 16 236 345 195 257 280 242 229 250 267 238 232
344 323 327 259 360 249 110 146 211 213 202 57 93 90 186 164 193 134 133 186 239 102 111 186 261 165 193 188 168 197 166 170 202 194 250 54 237 253 238 280 252 264 275 287 177
341 339 342 263 206 165 162 216 215 187 204 157 108 172 232 216 163 171 197 204 193 171 184 173 267 226 166 155 152 194 210 190 110 90 31 225 277 281 257 266 264 257 256 245 237
45 345 239 247 155 154 233 225 224 173 144 184 200 178 200 201 171 194 184 212 204 192 169 217 270 195 186 135 338 174 170 88 346 188 237 266 266 239 286 250 252 260 258 259 221
69 28 258 167 131 171 221 234 252 224 194 215 220 227 216 179 190 220 215 269 216 176 187 160 156 222 150 209 168 150 207 189 144 166 187 254 259 215 227 250 271 270 274 262 245
121 222 287 176 161 209 219 200 201 216 200 273 250 235 225 194 198 222 221 225 150 142 168 208 155 249 226 242 206 264 219 181 161 222 248 181 266 183 233 250 246 265 258 287 261
162 239 320 207 188 207 244 234 216 202 222 207 220 262 244 218 241 195 235 216 183 164 179 179 175 328 314 325 328 213 193 186 110 74 214 190 259 9 327 327 277 279 292 268 262
147 190 302 293 324 193 205 223 233 235 241 252 270 204 206 257 249 235 229 264 248 217 238 159 150 195 225 207 137 185 198 204 196 200 241 221 258 255 305 324 317 298 251 257 258
186 220 191 204 235 208 175 242 223 226 227 240 251 231 239 261 249 270 328 322 312 315 280 224 200 215 244 249 236 204 182 199 210 229 222 252 243 261 253 242 251 264 273 251 251
171 174 152 190 196 200 198 228 225 211 200 227 228 252 264 238 243 265 275 280 260 299 238 218 256 201 247 241 227 238 232 214 209 224 234 244 248 254 253 227 228 234 254 272 263
99 105 140 201 171 171 210 234 242 228 246 234 274 328 296 272 13 322 327 306 302 284 262 236 187 205 241 242 224 234 228 228 227 218 214 231 239 257 257 248 247 246 231 244 253